Fort Leonard Wood, MO

5:21 PM CDT on October 20, 2019 (GMT -0500)
Waynesville Regional At Forney Field

Weather History for KTBN - May, 2019

Change the Weather History Date:

Friday, May 31, 2019

  Actual Average Record
Temperature  
Mean Temperature 67 °F -  
Max Temperature 78 °F 75 °F 89 °F (1998)
Min Temperature 57 °F 59 °F 53 °F (1997)
Cooling Degree Days 2    
Growing Degree Days 17 (Base 50)    
Moisture  
Dew Point 57 °F    
Average Humidity 71    
Maximum Humidity 90    
Minimum Humidity 49    
Precipitation  
Precipitation 0.00 in - - ()
Sea Level Pressure  
Sea Level Pressure 29.94 in    
Wind  
Wind Speed 4 mph (West)    
Max Wind Speed 8 mph    
Max Gust Speed -    
Visibility 10 miles    
Events      
Averages and records for this station are not official NWS values.
T = Trace of Precipitation, MM = Missing Value Source: NWS Daily Summary

Daily Weather History Graph

Daily Weather History Graph

Search for Another Location

Airport or City:

Astronomy

May. 31, 2019 Rise Set
Actual Time 5:48 AM CDT 8:23 PM CDT
Civil Twilight 5:18 AM CDT 8:54 PM CDT
Nautical Twilight 4:40 AM CDT 9:32 PM CDT
Astronomical Twilight 3:57 AM CDT 10:15 PM CDT
Moon 4:18 AM CDT (5/31) 5:37 PM CDT (5/31)
Length of Visible Light 15h 36m
Length of Day
14h 35m
Waning Crescent, 8% of the Moon is Illuminated
May 31
Waning Crescent
Jun 3
New
Jun 10
First Quarter
Jun 17
Full
Jun 25
Last Quarter

Hourly Weather History & Observations

Time (CDT) Temp. Dew Point Humidity Pressure Visibility Wind Dir Wind Speed Gust Speed Precip Events Conditions
12:56 AM 62.8 °F 53.6 °F 72% 29.87 in 10.0 mi SW 4.6 mph - N/A   Partly Cloudy
1:56 AM 60.6 °F 53.8 °F 78% 29.87 in 10.0 mi SW 5.8 mph - N/A   Clear
2:56 AM 59.9 °F 53.8 °F 80% 29.88 in 10.0 mi WSW 4.6 mph - N/A   Clear
3:56 AM 58.8 °F 53.6 °F 83% 29.88 in 10.0 mi SW 4.6 mph - N/A   Clear
4:56 AM 57.9 °F 53.4 °F 85% 29.90 in 10.0 mi Calm Calm - N/A   Clear
5:56 AM 57.9 °F 53.8 °F 86% 29.92 in 10.0 mi WSW 3.5 mph - N/A   Scattered Clouds
6:56 AM 59.7 °F 54.9 °F 84% 29.93 in 10.0 mi West 3.5 mph - N/A   Clear
7:56 AM 62.4 °F 56.5 °F 81% 29.95 in 10.0 mi WNW 4.6 mph - N/A   Clear
8:56 AM 66.2 °F 58.1 °F 75% 29.96 in 10.0 mi NW 8.1 mph - N/A   Clear
9:56 AM 69.4 °F 59.2 °F 70% 29.97 in 10.0 mi NNW 8.1 mph - N/A   Clear
10:56 AM 72.0 °F 58.6 °F 63% 29.98 in 10.0 mi North 6.9 mph - N/A   Partly Cloudy
11:56 AM 73.8 °F 58.5 °F 59% 30.00 in 10.0 mi NW 6.9 mph - N/A   Scattered Clouds
1:56 PM 75.7 °F 57.9 °F 54% 29.98 in 10.0 mi WNW 3.5 mph - N/A   Mostly Cloudy
2:56 PM 77.2 °F 58.6 °F 53% 29.98 in 10.0 mi West 6.9 mph - N/A   Partly Cloudy
3:56 PM 77.7 °F 57.6 °F 50% 29.96 in 10.0 mi NW 5.8 mph - N/A   Mostly Cloudy
4:56 PM 77.5 °F 58.5 °F 52% 29.95 in 10.0 mi West 3.5 mph - N/A   Clear
5:56 PM 77.5 °F 56.8 °F 49% 29.94 in 10.0 mi Calm Calm - N/A   Clear
6:56 PM 76.3 °F 58.8 °F 55% 29.94 in 10.0 mi WNW 3.5 mph - N/A   Clear
7:56 PM 72.7 °F 59.7 °F 64% 29.94 in 10.0 mi Calm Calm - N/A   Clear
8:56 PM 65.8 °F 61.5 °F 86% 29.95 in 10.0 mi Calm Calm - N/A   Clear
9:56 PM 63.7 °F 59.4 °F 86% 29.96 in 10.0 mi Calm Calm - N/A   Clear
10:56 PM 62.2 °F 59.0 °F 89% 29.96 in 10.0 mi Calm Calm - N/A   Clear
11:56 PM 61.5 °F 58.5 °F 90% 29.95 in 10.0 mi Calm Calm - N/A   Clear